Location: Newark
(35.2672°N, 80.7344°W)
Time: 13:13:47
(UTC+00:00)

Vanguard 2 Rocket - Pass Details

Date: 26 January 2020
Orbit: 553 x 3327 km, 32.9° (Epoch: 24 February)

Event Time Altitude Azimuth Distance (km) Brightness Sun altitude
Rises 15:05:47 0° 275° (W) 3,765 9.7 25.4°
Reaches altitude 10° 15:08:08 10° 267° (W) 3,078 9.4 25.7°
Maximum altitude 15:15:23 40° 200° (SSW) 2,278 9.6 26.6°
Drops below altitude 10° 15:27:32 10° 138° (SE) 5,122 12.4 28.1°
Sets 15:32:48 0° 132° (SE) 6,547 12.4 28.7°
